GFSWCAN_250_rhum_063.txt.gz
RH
14 13 12 11 9 7 6 6 6 6 6 5 5 5 4 4 4 4 4 4 3 3 3 3 3 5 6 6 6 8 7 8 11 13 16 19 21 19 21 22 24 19 22 49 94 87 100 100 100 100 71 73 90 100
13 11 11 10 8 6 6 6 7 7 6 6 5 5 4 4 4 4 4 4 4 4 4 4 4 5 5 5 6 8 8 10 12 12 14 16 20 21 20 21 22 18 20 34 56 82 100 100 100 100 100 100 97 92
10 10 10 9 7 7 8 8 8 7 6 6 5 5 5 4 4 4 5 5 5 4 4 4 4 5 7 6 7 9 11 12 13 13 14 16 20 21 21 20 21 22 20 22 44 78 76 97 92 100 100 100 100 100
8 9 8 7 7 8 9 9 8 7 6 6 6 5 5 4 4 4 5 5 4 4 4 5 6 7 9 10 9 8 9 10 11 12 14 15 16 16 18 20 20 22 24 24 24 38 86 91 96 77 98 100 100 100
8 8 6 7 8 9 9 9 9 8 7 6 6 6 5 5 5 5 5 5 6 6 6 5 6 8 8 9 10 12 13 13 14 14 15 16 16 16 16 18 18 22 23 22 22 23 30 88 98 86 82 80 88 100
7 6 6 8 8 10 10 11 10 8 8 8 6 6 5 5 5 5 5 6 6 5 6 7 7 7 8 10 11 12 14 15 14 13 13 13 13 14 16 16 16 18 21 20 21 26 28 22 36 80 79 67 64 76
5 6 8 9 10 12 12 10 10 9 8 9 8 6 5 6 7 7 6 6 6 7 7 8 8 8 10 12 13 13 14 14 14 13 12 12 12 12 12 14 14 15 17 15 17 21 23 23 21 20 26 48 54 52
6 7 9 11 11 9 9 9 9 9 9 9 9 7 7 7 7 6 7 7 8 8 9 10 10 10 11 12 13 13 13 13 13 13 12 12 12 13 14 14 13 14 14 14 16 18 20 24 26 27 27 26 25 27
7 9 8 6 6 6 6 6 8 10 12 12 10 8 8 8 7 7 8 9 9 9 10 11 11 12 11 13 14 15 17 20 20 20 19 18 17 18 17 16 16 17 16 16 17 16 17 20 23 25 26 28 28 27
6 6 7 7 7 7 6 6 5 7 12 12 11 8 9 8 9 9 10 9 10 11 11 13 12 15 18 21 24 24 24 24 25 22 21 22 21 21 20 19 17 16 17 17 18 19 19 20 21 22 25 27 27 27
6 6 6 6 6 6 6 8 8 7 10 12 13 11 11 10 11 12 13 14 14 15 16 16 19 23 31 33 33 30 27 25 24 23 25 25 24 21 19 18 17 16 16 16 16 17 19 19 20 21 22 22 24 26
5 5 4 4 5 5 7 9 8 7 7 11 14 13 13 14 14 15 18 21 25 26 24 25 28 30 27 31 32 32 33 31 30 31 30 29 26 27 23 20 18 17 17 17 18 18 18 18 18 19 19 21 21 21
4 4 4 4 4 5 7 7 8 8 10 15 17 16 15 16 19 22 22 23 23 25 27 27 28 29 28 30 32 39 41 38 34 36 37 32 31 29 26 23 22 23 22 22 22 22 21 22 22 22 22 20 20 19
4 4 4 5 5 5 6 7 10 12 13 16 17 18 17 18 17 15 16 18 24 28 28 30 29 34 36 35 47 40 45 52 45 33 33 42 43 38 34 33 31 28 30 28 24 22 22 22 21 22 21 22 22 22
5 5 5 5 5 6 7 9 13 13 11 13 15 15 19 23 26 28 30 32 30 28 30 33 36 41 44 48 50 54 62 55 46 59 56 57 54 52 40 31 29 28 29 27 25 25 26 26 27 28 29 29 31 30
6 5 5 6 6 8 11 14 16 16 15 15 18 20 20 19 18 20 20 22 24 27 32 32 34 38 44 45 47 51 52 41 49 55 57 52 50 46 41 37 34 31 32 34 34 32 33 31 27 27 27 24 20 18
6 6 6 5 6 8 12 14 16 16 19 21 20 20 20 18 19 20 20 22 22 26 32 35 35 38 40 30 29 33 26 26 23 23 24 24 23 23 23 22 21 20 20 20 20 20 19 19 18 19 18 17 16 14
6 7 7 7 7 8 9 10 9 13 15 16 18 18 20 20 19 18 17 15 16 18 20 18 18 17 17 17 17 18 20 23 23 25 28 26 23 24 24 23 21 20 19 19 18 18 18 16 15 14 15 16 17 17
6 7 7 7 8 8 9 10 10 11 13 13 12 12 13 13 14 14 15 16 17 18 20 23 25 30 36 46 50 49 51 51 50 54 54 55 53 52 50 48 46 43 39 36 34 33 34 34 34 36 36 34 31 30
9 9 8 9 9 9 9 10 11 12 14 15 16 17 18 20 22 28 32 37 42 46 52 60 64 68 67 72 76 79 82 82 77 74 73 73 70 68 64 61 58 56 56 55 52 50 47 45 42 38 34 33 29 26
12 13 14 16 17 16 16 18 21 24 27 32 40 45 47 47 47 53 60 67 71 77 81 91 93 95 90 88 85 81 82 81 75 70 68 69 67 65 62 58 54 50 46 41 38 35 31 28 23 21 21 21 20 20
23 24 28 31 31 31 32 36 41 50 55 56 60 65 70 73 76 81 90 88 91 96 96 94 97 97 88 78 70 71 76 76 72 67 63 59 55 52 48 45 43 40 37 35 29 25 23 22 21 18 17 15 13 12
33 36 38 42 45 49 57 60 61 65 68 69 73 74 75 78 85 88 86 87 83 77 73 74 78 79 78 78 76 76 74 72 70 65 59 54 47 40 34 29 25 22 18 17 16 13 12 11 10 9 8 7 6 6
49 58 62 65 71 74 78 80 85 83 83 83 83 85 86 82 81 79 77 76 78 80 82 84 86 88 87 90 92 86 79 71 68 62 50 41 33 26 20 17 15 14 12 10 9 8 7 6 6 5 5 4 4 4
65 67 75 76 81 78 84 85 80 79 79 82 81 78 78 81 82 88 92 90 89 89 89 89 95 97 99 100 96 93 84 71 57 45 36 29 24 20 17 14 11 10 8 7 6 6 5 5 4 4 3 3 3 3
66 72 74 74 75 76 73 77 78 81 83 86 88 92 95 94 92 93 95 98 100 100 100 100 100 100 99 92 84 74 65 52 41 30 23 19 15 13 11 9 7 6 6 5 4 4 3 4 4 4 4 3 3 3
67 73 79 84 88 86 89 96 99 100 100 98 96 93 93 95 96 100 100 100 100 100 97 94 92 92 93 87 69 58 47 32 23 18 14 11 9 8 7 6 5 4 4 3 4 4 4 3 3 3 3 2 2 2
80 84 88 90 94 97 98 97 97 99 92 92 92 96 99 100 100 100 100 98 95 94 92 87 82 74 70 58 45 39 29 21 16 12 10 8 6 5 4 4 4 3 4 3 3 3 3 3 3 2 2 2 2 2
85 90 94 93 94 94 94 91 90 95 99 100 100 100 100 100 100 99 96 92 90 89 84 74 68 57 51 40 35 26 18 13 10 8 6 5 4 4 4 3 3 3 3 3 3 2 2 2 2 2 2 2 2 2
84 90 93 93 92 92 96 98 100 100 100 100 100 100 100 99 96 92 92 90 83 71 63 53 46 42 37 30 22 16 11 8 7 6 4 4 4 4 3 3 3 3 3 2 2 2 2 2 2 2 2 2 2 2
87 95 99 98 97 98 100 100 100 100 100 100 100 99 95 100 90 86 84 73 61 50 41 39 37 32 26 20 14 10 7 6 5 4 4 4 3 3 3 3 3 2 2 2 2 2 2 2 2 2 2 2 1 1
97 99 99 100 100 100 100 100 100 99 92 91 92 93 91 88 84 77 68 56 46 40 37 33 27 21 17 12 9 7 6 5 4 4 3 3 3 3 2 2 2 2 2 2 2 2 2 2 2 1 1 1 1 1
95 96 96 99 100 100 100 100 96 91 89 88 88 85 78 72 68 64 52 45 38 34 28 24 18 14 10 8 7 5 4 4 3 3 3 3 2 2 2 2 2 2 2 2 2 2 2 1 1 1 1 1 1 1

GFSWCAN_250_rhum_066.txt.gz
RH
16 16 17 16 14 12 13 14 10 9 6 6 5 5 5 5 4 4 4 4 4 4 4 4 4 4 4 4 5 5 5 6 7 9 11 14 17 19 20 19 24 32 41 46 36 86 100 100 100 100 76 100 100 100
14 15 15 14 13 13 15 12 10 7 7 6 6 6 5 5 4 4 4 4 4 4 4 4 4 3 3 4 5 7 8 10 10 11 13 14 16 22 24 24 23 29 30 38 40 44 100 100 100 100 87 74 96 100
13 13 12 12 12 14 13 11 9 8 8 7 7 6 5 5 5 4 4 4 5 5 4 4 4 4 4 4 7 7 7 7 9 10 13 14 16 22 25 24 23 22 23 29 36 35 70 100 100 100 100 85 84 81
11 11 10 10 11 12 11 10 8 9 8 8 7 6 6 6 5 5 4 5 5 5 5 5 4 4 5 6 7 7 10 13 10 12 13 15 17 19 22 22 19 21 21 25 28 32 32 83 100 100 100 100 100 86
8 8 8 9 10 10 10 8 9 10 10 10 9 7 6 6 6 5 5 5 5 5 4 4 4 5 5 6 8 8 8 9 11 11 12 14 14 15 18 20 22 24 25 22 24 24 30 29 76 100 100 100 100 100
7 7 8 9 9 9 8 8 9 10 10 10 9 8 7 8 8 7 6 5 5 5 5 5 5 5 7 8 8 9 11 11 11 12 14 13 13 12 13 17 19 23 23 20 20 20 24 26 24 51 93 86 100 100
5 6 7 8 8 7 8 8 8 10 12 11 10 10 8 8 7 6 7 6 5 5 5 6 6 6 8 9 11 12 12 12 12 12 13 12 12 14 16 18 19 20 19 18 19 19 22 21 19 20 25 47 62 72
6 7 7 7 7 8 8 8 10 12 14 13 11 12 9 8 8 7 8 7 6 6 6 6 6 7 8 10 11 12 12 12 13 14 14 14 15 15 16 15 14 15 15 15 16 18 20 22 23 19 16 17 20 30
6 6 6 7 7 8 10 10 11 12 16 13 12 12 9 8 9 9 8 7 7 7 7 7 8 8 7 8 10 11 12 12 13 14 15 16 16 17 15 14 14 14 13 14 14 16 17 19 21 24 26 27 26 24
5 6 6 8 8 8 7 7 8 10 13 15 16 11 8 9 9 8 9 8 8 9 9 9 10 12 12 10 10 12 11 12 11 12 14 15 15 14 14 13 13 13 11 11 12 14 15 15 17 19 20 22 24 26
6 7 7 6 6 7 8 9 8 8 13 19 15 10 10 10 10 9 9 9 9 10 10 11 12 14 17 17 15 14 14 15 16 19 21 21 20 19 18 18 17 16 15 14 14 15 16 15 15 15 16 17 18 19
6 6 6 6 7 8 8 9 9 7 14 16 14 11 10 10 11 12 11 12 12 14 14 16 17 18 20 22 23 22 22 24 23 26 27 24 22 22 20 19 19 20 19 19 18 16 16 15 15 16 16 17 17 17
5 5 5 5 6 6 7 9 9 10 17 17 14 12 11 10 10 11 11 12 13 15 18 20 24 26 28 32 31 32 27 29 29 29 28 29 29 28 27 26 24 22 22 21 20 19 18 17 17 16 17 17 18 19
4 4 4 4 5 6 10 12 12 14 16 16 14 12 12 12 13 14 18 22 23 25 28 34 36 36 40 41 39 37 35 34 32 35 39 38 37 36 33 30 28 27 26 26 25 22 21 21 20 19 18 17 16 16
4 4 4 5 7 11 12 11 11 12 15 14 14 14 16 21 25 29 31 30 28 29 34 37 44 51 54 52 51 52 47 39 38 40 42 41 38 34 30 28 28 27 28 28 26 25 23 22 21 21 21 20 19 19
5 5 6 7 8 9 11 12 12 15 18 20 22 24 25 24 24 26 29 34 32 33 38 45 49 45 48 53 55 49 52 78 71 59 59 54 49 41 35 31 27 27 27 29 27 26 27 27 26 25 26 24 23 23
5 5 6 7 9 12 14 17 20 25 25 23 22 24 24 24 24 27 31 39 44 49 53 52 55 59 58 64 71 68 70 64 62 62 58 58 59 57 49 43 39 37 36 34 31 29 27 27 28 26 24 24 24 22
5 6 7 9 11 12 15 16 15 17 17 18 20 20 23 27 34 36 39 49 57 59 55 57 56 58 54 48 44 35 32 30 26 26 25 26 26 26 28 29 29 28 27 25 23 22 22 21 20 20 19 18 18 17
7 7 7 9 10 11 11 14 15 18 21 22 24 27 29 30 32 32 27 32 33 28 24 23 23 24 27 33 40 42 52 63 60 53 56 59 62 64 66 66 64 61 58 53 49 46 44 41 36 32 29 27 25 24
7 8 8 9 11 13 14 16 17 18 18 17 15 16 16 16 17 18 18 20 27 36 44 50 54 56 59 71 77 82 87 88 92 93 94 91 83 79 74 70 65 58 54 49 46 44 42 37 33 31 28 25 25 23
8 9 9 9 9 10 11 11 12 14 15 17 18 20 25 25 32 39 50 69 72 72 74 76 77 87 93 94 93 91 88 84 82 79 75 72 66 62 59 55 50 46 43 39 35 33 30 29 27 27 25 23 21 20
12 12 13 14 15 17 16 17 24 28 32 39 49 58 63 68 72 75 80 82 87 92 94 91 88 86 87 91 90 84 82 80 76 71 65 58 49 42 37 32 28 24 21 18 16 15 14 13 11 10 9 8 8 7
29 32 34 35 36 39 44 46 44 49 55 63 68 70 75 79 83 83 82 84 87 91 94 92 89 88 92 93 85 80 76 71 63 57 51 42 34 28 23 19 17 15 13 12 10 8 7 7 6 6 5 5 5 5
43 49 56 61 64 65 67 67 68 69 70 70 72 78 83 88 89 93 91 89 86 85 88 87 85 83 80 79 82 81 75 71 72 69 58 41 29 21 17 15 14 10 8 7 6 6 5 5 4 4 4 3 3 3
57 60 66 68 74 77 80 80 79 78 83 88 90 91 92 95 90 87 89 89 88 85 84 83 83 83 86 88 86 86 80 74 60 46 35 27 18 14 12 10 8 7 6 5 4 4 4 3 3 3 3 3 3 3
56 57 66 75 81 82 86 90 91 92 90 88 89 91 89 86 89 90 85 83 84 83 83 88 92 96 97 90 86 76 69 60 53 40 29 20 14 10 7 6 5 5 4 4 3 3 3 3 3 3 3 3 3 2
71 80 89 95 97 90 88 95 94 93 91 89 88 89 87 90 95 97 99 99 95 92 92 93 96 97 97 90 73 62 53 47 33 24 17 12 9 7 6 4 4 4 3 3 3 3 3 3 3 2 2 2 2 2
83 90 89 91 90 93 93 88 89 90 92 90 89 95 98 98 98 100 99 98 99 99 98 98 94 82 65 56 54 48 41 28 20 14 10 8 6 5 4 4 4 4 3 3 3 3 2 2 2 2 2 2 2 2
86 93 94 88 86 86 89 91 91 90 91 95 98 98 98 100 100 100 99 100 97 91 85 72 61 55 51 48 41 35 25 18 12 8 7 6 5 4 4 4 3 3 3 2 2 2 2 2 2 2 2 2 2 2
87 85 83 86 94 95 96 94 94 95 96 98 100 100 100 100 97 91 85 78 71 66 57 52 49 46 40 36 28 22 15 10 8 6 4 4 3 3 3 3 3 2 2 2 2 2 2 2 2 2 2 2 2 1
80 85 92 93 95 100 99 98 99 100 100 100 100 100 97 92 84 80 75 70 67 58 53 49 43 36 31 26 20 13 9 7 6 5 4 4 3 3 3 2 2 2 2 2 2 2 2 2 2 2 2 1 1 1
83 89 92 96 98 99 94 95 97 98 99 96 92 89 86 83 80 76 71 71 63 56 50 43 35 26 21 16 12 9 7 6 5 4 4 4 3 3 3 2 2 2 2 2 2 2 2 2 2 2 1 1 1 1
86 89 90 93 93 92 94 94 92 91 90 89 91 91 85 80 72 72 66 58 50 45 38 33 26 21 16 12 9 7 5 5 4 4 4 3 3 2 2 2 2 2 2 2 2 2 2 2 2 2 1 1 1 1

GFSWCAN_250_rhum_072.txt.gz
RH
19 18 21 21 21 23 24 24 24 24 23 22 20 18 17 16 16 13 9 9 7 6 6 6 6 5 5 5 6 5 5 5 5 6 7 9 10 11 12 14 16 19 24 28 31 38 57 46 60 81 86 91 75 100
11 14 16 18 20 21 22 22 21 20 19 19 17 17 16 16 15 10 9 10 7 6 5 6 5 5 6 5 5 5 4 6 6 6 8 9 10 12 11 13 16 19 26 28 32 41 46 42 51 75 78 95 66 75
8 10 11 13 14 15 16 17 17 17 17 16 16 17 16 16 13 9 9 8 7 6 6 5 5 4 4 4 5 5 4 6 7 7 8 9 10 11 12 14 17 22 24 28 28 33 40 40 47 56 68 82 79 52
8 10 10 11 12 13 13 14 15 15 16 16 16 16 15 14 10 11 10 7 7 6 5 5 5 5 5 5 5 5 5 6 7 7 8 10 10 11 12 14 18 20 23 20 21 24 37 44 45 50 56 67 71 59
7 8 8 9 10 11 12 13 14 16 15 15 15 15 14 10 9 10 12 7 7 6 6 5 7 6 6 5 4 4 5 7 7 7 8 10 10 11 13 15 18 20 24 23 29 30 36 43 46 49 55 61 58 54
5 6 7 8 9 10 12 13 14 14 15 15 14 13 12 9 9 10 10 8 7 6 6 5 6 6 5 5 4 5 6 5 6 7 8 8 10 11 12 15 16 16 18 21 27 28 30 36 44 45 43 45 51 54
4 5 6 7 8 9 11 12 12 14 14 14 12 12 10 10 10 11 8 8 7 6 5 6 6 6 5 5 5 4 4 5 7 7 8 9 9 10 11 12 12 12 18 23 30 29 25 28 35 41 42 39 40 50
4 4 5 5 6 7 8 10 13 13 13 12 11 10 10 12 14 10 8 7 7 6 6 6 6 6 6 5 6 7 8 8 8 8 9 9 9 9 9 10 12 15 18 19 21 23 24 24 26 29 31 34 40 42
4 4 5 5 6 7 8 10 12 12 11 10 10 11 12 15 13 10 9 8 8 7 7 8 7 7 7 7 8 9 10 10 11 11 12 13 14 14 16 19 22 22 20 20 22 24 25 25 26 26 28 36 37 38
4 4 5 6 6 7 9 10 10 9 9 11 12 11 12 14 13 10 9 7 8 8 9 9 9 10 10 11 11 10 11 12 13 16 16 15 15 15 17 19 18 17 17 17 18 20 23 25 28 28 26 27 29 32
4 5 5 6 6 7 8 9 8 9 10 12 12 16 16 15 12 10 9 9 8 9 9 9 9 10 12 14 15 16 16 16 16 15 15 17 19 19 20 22 21 20 19 19 19 19 20 21 21 24 27 28 30 30
4 5 5 6 6 7 7 7 9 11 13 14 16 17 17 14 11 10 10 10 10 10 10 10 10 10 11 13 16 18 17 18 21 20 18 20 21 20 20 20 21 20 20 20 20 20 20 20 20 20 21 22 22 23
5 5 6 6 6 6 8 11 12 11 10 12 15 18 16 11 10 10 12 13 13 12 12 13 14 14 13 14 15 17 18 20 20 19 20 21 21 22 23 23 22 21 19 18 18 18 18 18 17 17 17 17 17 17
4 5 5 6 7 10 10 10 9 11 13 13 15 13 12 11 13 14 12 12 13 13 14 17 16 17 16 16 19 22 25 27 29 29 30 31 30 30 30 28 26 25 24 23 22 21 21 21 20 19 18 18 18 18
6 6 8 9 9 9 10 11 11 11 13 16 16 12 13 14 14 13 13 14 16 16 17 17 18 19 22 28 34 37 39 39 34 33 34 37 35 33 32 33 34 33 32 32 32 32 32 31 30 27 24 22 20 18
7 8 9 8 8 8 9 10 11 13 19 17 14 12 13 14 14 14 15 15 17 19 24 27 30 33 39 42 45 42 40 38 44 47 43 46 54 63 68 65 59 51 46 44 42 41 41 40 37 35 33 31 29 27
6 6 6 7 8 9 12 12 15 18 16 14 13 12 14 16 18 21 25 31 35 37 38 39 42 43 43 50 52 53 60 68 78 80 78 78 80 88 86 86 87 84 83 72 62 51 39 32 28 24 21 20 20 19
5 6 7 9 12 14 15 18 19 16 15 16 17 20 25 28 29 29 34 41 44 44 47 54 55 64 65 76 86 89 92 94 98 100 100 98 93 90 87 90 85 82 81 76 66 56 49 42 36 31 26 22 19 17
8 12 12 12 13 15 19 18 16 16 18 22 30 33 34 34 35 37 41 46 58 61 62 70 76 85 92 94 98 100 100 100 98 100 98 88 84 86 85 83 80 73 67 60 54 48 43 37 33 31 29 27 25 23
10 13 14 14 16 17 18 20 22 27 31 30 30 37 44 50 49 49 53 62 73 76 79 87 97 100 100 100 100 100 100 98 99 98 96 92 81 73 66 59 52 47 43 40 33 28 24 22 19 17 15 13 11 10
13 17 19 19 21 21 23 25 28 30 31 33 29 33 35 38 48 62 65 78 91 100 99 100 100 100 95 92 94 97 92 82 76 80 81 79 73 66 60 47 38 33 28 22 19 17 16 14 12 10 9 8 7 6
17 19 20 21 20 22 22 23 25 30 36 43 43 42 48 55 64 80 93 96 100 100 100 100 100 99 95 87 88 92 91 90 90 90 87 83 74 60 49 41 33 25 19 15 13 11 9 8 7 6 6 5 5 5
18 18 20 19 20 23 27 26 27 28 30 29 33 49 67 78 92 99 98 97 96 96 90 84 87 93 94 89 86 88 88 90 93 93 86 73 59 47 38 27 23 15 11 9 7 6 6 6 5 5 4 4 4 3
18 16 17 19 18 18 19 24 31 42 58 70 78 84 89 89 90 88 89 90 89 93 94 95 96 95 92 97 99 98 96 96 93 89 75 61 50 38 29 23 14 11 8 6 5 5 4 4 3 3 3 3 3 3
17 20 23 28 31 35 41 56 70 72 71 73 76 83 87 88 86 86 88 90 85 89 94 95 96 100 100 100 100 98 97 90 87 82 68 54 40 29 20 13 9 7 6 5 4 4 3 3 3 3 3 3 3 2
51 59 67 66 68 64 63 65 68 75 81 85 86 87 88 88 87 86 84 85 91 99 100 100 100 99 99 96 93 92 91 87 80 69 50 33 23 16 12 9 7 6 5 4 4 3 3 3 3 2 2 2 2 2
60 64 69 74 73 75 80 85 89 89 87 85 84 84 85 87 92 96 99 100 100 100 98 96 92 95 97 98 97 92 85 70 57 41 28 20 14 11 8 6 5 4 4 4 3 3 3 3 2 2 2 2 2 2
65 70 67 71 78 86 89 91 88 85 82 82 89 95 96 98 99 100 98 99 100 97 94 97 97 98 97 94 87 76 68 50 40 30 22 15 11 8 7 5 4 4 4 3 3 3 2 2 2 2 2 2 2 2
63 67 70 80 86 92 95 94 89 85 89 96 99 98 100 100 100 100 97 99 99 93 92 96 96 94 90 84 70 60 51 39 29 21 13 10 8 6 6 5 4 4 3 3 3 2 2 2 2 2 2 2 2 2
73 76 78 83 82 84 82 80 82 89 95 98 98 96 97 99 100 99 98 94 94 95 94 94 93 91 86 80 65 54 39 30 22 15 10 8 7 6 6 5 4 4 3 3 2 2 2 2 2 2 2 2 2 2
69 75 80 82 82 83 85 83 84 87 92 99 97 99 100 100 98 95 92 94 92 91 93 93 89 86 83 71 57 39 28 24 17 12 9 7 7 6 5 4 4 3 3 2 2 2 2 2 2 2 2 2 2 2
68 74 79 82 87 94 92 89 89 93 97 98 100 100 100 100 98 98 95 93 92 94 92 86 88 86 70 54 42 32 24 19 13 9 8 6 5 4 4 4 3 3 2 2 2 2 2 2 2 2 2 2 2 2
68 73 76 77 80 82 79 82 93 97 98 99 100 100 100 98 97 99 93 90 89 88 84 82 79 65 50 41 30 23 19 14 10 8 6 6 5 4 4 3 3 2 2 2 2 2 2 2 2 2 2 2 2 2

GFSWCAN_250_rhum_075.txt.gz
RH
20 20 20 20 21 22 25 27 26 25 25 24 24 25 26 28 22 19 17 15 11 11 7 9 8 7 6 5 5 5 5 4 4 5 5 5 6 6 8 10 12 16 19 20 24 25 24 28 51 71 86 93 99 98
16 19 22 23 26 28 29 29 28 27 28 27 26 26 24 22 17 15 16 14 11 9 9 9 9 6 5 6 6 5 5 5 5 6 6 7 8 9 10 12 12 16 17 20 24 25 21 23 48 81 83 95 100 100
12 12 14 17 18 19 20 22 23 24 24 24 23 20 19 17 16 14 13 14 11 7 8 8 8 6 5 6 5 5 5 6 5 6 6 6 6 9 11 13 12 14 17 20 24 25 23 23 38 83 89 86 100 100
9 9 9 10 12 13 14 15 16 17 18 18 17 17 16 15 16 15 13 11 9 10 7 7 8 6 6 6 6 6 6 6 5 7 7 7 7 9 10 11 12 14 17 20 21 19 22 22 31 59 91 97 98 100
8 8 9 11 11 12 13 14 14 15 15 15 16 16 15 15 14 14 15 9 10 10 8 7 7 6 6 6 6 6 6 6 5 6 6 7 8 9 10 11 13 14 16 17 17 20 23 24 27 45 63 80 96 99
6 7 8 9 10 11 12 13 13 14 14 15 15 15 16 14 12 14 15 11 10 8 8 7 7 7 6 6 6 5 6 5 5 6 6 8 9 10 11 13 14 15 14 15 20 25 28 29 30 39 52 59 71 90
5 6 7 8 9 10 11 11 11 13 13 14 15 16 15 13 12 12 14 15 12 9 8 7 7 6 5 5 6 6 6 5 5 6 7 8 9 10 10 12 14 14 13 15 19 26 29 30 30 36 44 51 51 53
4 4 5 6 7 8 9 10 11 12 13 13 15 14 14 13 12 11 15 14 10 9 8 7 6 6 5 5 5 5 5 6 8 8 9 8 8 9 10 10 11 10 17 18 20 26 28 26 26 29 35 43 48 47
4 4 4 5 5 6 7 9 10 11 11 13 13 15 13 12 11 14 14 11 10 9 8 8 6 6 6 6 7 7 9 10 11 10 10 10 10 10 10 10 12 16 18 20 22 25 24 27 27 25 29 36 41 46
4 4 5 5 5 6 7 8 8 9 10 13 14 12 10 12 16 16 13 11 10 9 8 8 7 8 8 9 10 11 12 13 14 14 14 14 16 17 20 23 28 29 27 28 25 26 30 31 32 30 29 30 34 43
4 4 4 4 5 6 6 7 8 9 11 12 10 10 13 17 19 16 12 11 10 9 8 8 7 8 10 11 12 13 13 15 15 16 18 20 20 21 21 21 20 16 14 15 17 19 21 22 26 29 31 32 31 32
4 4 4 4 5 6 6 7 8 9 11 11 10 14 19 20 19 14 12 10 10 10 9 9 9 9 10 12 12 14 17 18 17 17 17 18 19 20 21 21 22 22 22 22 22 22 22 23 23 25 26 27 27 26
4 4 4 5 5 6 6 7 10 9 9 10 16 20 20 20 15 13 12 12 12 12 12 13 13 13 13 14 16 17 19 22 22 22 22 22 22 22 23 24 24 23 22 21 21 20 20 20 19 18 18 19 21 22
4 4 4 5 6 7 8 7 7 9 13 17 16 16 18 17 15 14 13 13 13 14 15 15 17 19 20 20 20 22 21 20 22 23 22 21 22 23 23 24 25 27 26 25 23 22 21 20 19 19 19 18 18 20
4 5 6 6 6 6 6 8 12 12 12 13 17 21 20 14 13 14 12 13 14 14 16 19 21 21 22 24 26 28 28 31 34 34 37 36 39 40 41 44 44 42 41 39 36 34 31 28 26 24 23 22 20 19
5 6 6 6 7 8 10 10 10 11 14 20 19 14 13 13 15 15 15 16 16 19 25 27 30 32 30 31 33 36 46 49 50 56 54 56 55 55 54 54 54 56 54 49 45 42 38 36 34 31 29 26 23 21
6 6 7 9 10 11 11 12 12 17 20 16 12 13 13 16 18 17 19 22 23 30 35 37 38 39 43 44 47 63 68 62 60 68 67 63 56 49 44 41 38 36 34 33 33 32 31 28 26 25 23 22 20 19
6 8 9 10 11 12 14 14 15 15 14 12 13 14 15 19 24 25 30 36 42 42 46 48 57 69 75 78 72 69 68 64 64 63 61 59 59 60 60 61 64 66 62 56 51 47 44 41 36 30 26 23 21 20
7 8 9 10 13 13 16 17 16 16 16 16 18 22 27 31 33 33 39 43 50 58 65 70 71 69 66 62 61 69 82 87 85 87 87 90 94 95 95 92 88 82 76 68 63 59 51 44 37 32 30 27 24 20
9 10 13 14 14 16 16 16 16 17 22 26 30 34 38 40 42 44 54 63 66 66 66 62 56 59 69 79 84 82 87 95 100 100 100 100 98 92 86 77 67 59 52 45 39 32 25 21 18 16 14 13 11 10
10 12 13 15 17 17 18 19 19 24 26 32 38 42 48 50 58 64 61 67 61 50 48 62 75 90 97 99 100 100 100 100 100 100 97 88 76 72 71 63 54 47 39 31 26 19 16 13 11 9 8 7 7 6
12 14 16 16 18 20 24 26 26 26 32 40 52 63 62 58 53 48 49 49 61 85 99 100 100 100 100 100 100 100 93 84 88 90 88 87 88 83 70 56 48 35 26 21 14 10 8 7 6 6 5 5 5 4
14 17 18 19 21 21 21 20 25 32 43 51 54 48 41 39 46 59 77 94 99 100 100 100 100 100 100 92 89 94 95 98 98 98 96 93 83 69 56 40 28 20 15 11 9 7 6 6 5 4 4 3 3 3
16 16 18 20 21 24 26 34 41 44 38 35 35 42 53 73 91 99 99 100 100 100 100 100 96 83 91 97 99 99 100 100 98 92 84 77 67 53 41 25 20 15 11 8 6 5 4 4 3 3 3 3 3 3
19 21 24 24 24 26 22 21 22 27 33 50 67 87 96 100 100 100 97 97 99 98 91 86 94 100 100 100 100 98 100 97 92 89 84 76 60 42 25 18 14 10 8 6 5 5 4 4 3 3 3 3 2 2
14 14 14 15 17 20 29 42 53 63 75 87 93 98 96 91 93 94 95 96 94 95 96 100 100 100 100 100 100 93 93 94 94 89 66 52 39 26 15 13 10 8 6 5 5 4 4 4 3 3 3 2 2 2
22 28 35 43 50 58 66 74 83 89 93 92 89 86 89 94 95 97 96 95 98 100 100 100 98 94 93 94 95 93 90 89 86 67 50 40 28 18 13 10 9 7 5 5 4 4 4 3 3 2 2 2 2 2
41 48 54 62 73 83 86 88 89 88 88 89 90 92 93 95 96 98 100 100 100 97 92 90 88 93 93 94 95 89 83 79 71 55 43 30 19 13 10 9 7 5 4 4 4 3 3 2 2 2 2 2 2 2
54 63 70 78 80 81 84 86 85 83 83 86 88 88 88 93 98 100 100 97 94 92 84 87 89 94 92 93 90 80 78 75 63 46 29 19 12 9 8 7 5 4 4 3 3 3 2 2 2 2 2 2 2 2
63 68 71 73 77 83 85 82 79 76 83 88 93 95 98 99 100 98 96 92 92 91 86 86 89 93 95 94 89 83 76 68 49 33 21 12 9 9 7 6 5 4 4 3 3 2 2 2 2 2 2 2 2 2
71 73 75 78 81 84 84 80 81 85 89 93 98 100 100 100 97 98 96 94 92 86 87 92 94 93 92 88 87 81 71 49 34 24 16 11 9 7 6 5 4 4 4 3 3 2 2 2 2 2 2 2 2 2
70 71 73 77 80 82 84 86 87 88 94 99 100 100 100 100 100 97 92 92 90 90 92 93 94 90 85 82 74 62 47 34 24 17 13 10 7 5 5 4 4 4 3 2 2 2 2 2 2 2 2 2 2 2
64 68 71 72 72 75 79 83 86 88 94 99 98 100 100 100 98 98 95 94 91 89 89 91 87 84 78 65 56 45 34 25 19 14 10 7 5 5 4 4 4 3 3 2 2 2 2 2 2 2 2 2 2 2

GFSWCAN_250_rhum_081.txt.gz
RH
25 26 26 26 31 37 38 40 44 41 42 43 45 42 40 39 38 32 28 27 23 23 22 22 23 22 17 14 11 10 8 10 8 6 6 6 6 6 7 6 7 7 6 6 9 18 22 23 22 26 24 21 29 49
21 25 26 26 26 28 29 30 35 36 35 34 35 34 32 31 30 27 26 23 25 27 26 23 20 16 15 13 11 8 8 8 7 6 6 6 6 6 7 7 7 7 7 7 11 19 25 26 29 29 30 25 24 29
16 18 22 26 29 29 28 29 30 30 30 30 30 30 31 29 29 29 28 28 27 25 22 19 14 14 13 11 10 8 8 7 7 6 6 6 6 6 6 6 6 6 7 8 13 18 24 26 29 27 27 24 22 22
14 15 16 18 21 23 26 29 31 32 33 33 33 33 31 28 29 31 29 25 18 16 17 14 12 12 11 9 10 8 8 7 6 6 6 6 5 6 6 6 6 7 8 10 15 21 24 26 28 25 23 23 21 20
12 13 14 14 15 16 17 18 19 21 22 23 23 24 25 25 25 26 24 17 15 15 12 13 13 10 10 10 8 7 8 6 6 6 6 6 6 7 7 7 7 9 12 16 20 20 21 17 18 21 25 27 22 23
12 13 14 15 14 15 16 17 18 19 19 19 20 21 20 20 21 20 18 16 16 13 12 12 10 10 10 9 7 7 7 6 7 7 6 6 6 7 7 7 7 9 14 17 17 14 12 12 17 22 27 28 26 25
9 11 14 14 13 16 16 17 19 19 19 18 17 16 17 18 18 19 16 15 13 13 14 11 8 9 10 8 7 7 7 6 7 6 6 7 7 8 8 9 10 11 13 12 11 11 12 14 25 27 28 28 28 28
8 9 10 12 12 13 15 15 16 15 15 15 15 15 16 18 21 19 15 13 12 12 11 11 10 8 7 7 6 6 6 6 6 7 7 7 8 8 10 11 13 14 12 11 12 17 18 21 29 27 28 31 31 30
6 7 8 9 10 12 12 13 13 13 13 14 15 16 19 22 19 16 16 12 11 11 11 11 8 7 7 6 6 6 6 7 7 7 7 8 8 10 11 13 12 12 11 16 18 20 21 22 25 27 26 28 30 30
5 6 7 8 9 9 10 11 12 12 13 14 16 18 20 17 17 16 14 12 11 11 12 9 8 8 8 7 6 6 6 6 7 7 8 9 10 12 12 12 13 14 16 17 22 23 26 25 24 27 28 30 32 33
5 6 6 7 8 9 10 10 11 12 14 14 16 16 15 16 16 14 14 12 13 14 10 9 9 8 8 8 7 6 7 8 8 9 9 10 12 14 18 20 20 21 22 23 22 25 25 24 24 23 24 25 27 29
4 5 5 6 7 8 9 10 11 12 12 12 12 14 16 15 14 15 13 16 15 11 10 10 10 9 10 11 10 9 9 9 9 8 10 11 13 15 17 16 16 16 17 17 18 16 17 19 21 22 23 24 25 27
4 4 5 5 6 6 7 7 8 10 11 12 15 14 13 14 15 14 17 16 13 12 11 11 12 13 13 13 12 12 12 11 10 10 10 10 13 14 15 17 20 22 23 23 24 24 23 22 22 22 23 22 22 22
4 4 5 5 5 6 6 7 8 9 10 10 11 14 15 14 18 19 16 15 12 11 12 13 14 15 15 14 14 16 16 16 16 17 18 20 23 24 24 24 25 25 25 25 24 23 23 22 21 20 20 20 20 20
3 4 4 5 5 6 6 7 8 8 9 11 13 15 15 21 21 17 14 13 13 15 14 15 16 16 16 17 16 17 17 18 20 22 23 25 26 26 26 27 28 28 28 28 27 26 25 24 23 23 22 21 20 19
4 4 4 5 5 6 6 6 7 9 11 13 13 16 23 21 17 15 13 15 16 16 17 18 18 19 17 18 21 21 21 23 24 25 28 30 32 32 31 32 34 36 38 39 41 40 42 42 40 38 35 31 28 24
4 4 5 5 6 6 7 9 11 11 12 13 19 25 22 17 16 15 18 18 17 18 19 18 21 22 21 24 23 24 24 28 34 43 52 62 76 86 87 83 80 76 72 69 64 60 52 49 47 43 40 37 34 30
5 6 6 7 7 9 10 10 9 11 15 20 22 20 17 14 15 18 20 21 21 21 25 26 26 29 30 33 44 57 66 74 82 82 81 72 65 66 66 65 65 65 63 61 57 52 47 42 39 36 32 26 21 18
6 6 6 7 8 9 9 11 13 15 17 20 18 16 14 14 19 23 23 23 24 34 40 40 43 48 58 74 78 77 75 70 66 68 72 74 76 78 77 80 84 82 79 71 64 51 44 34 26 21 16 13 11 10
6 6 7 8 9 10 11 13 15 19 21 15 16 15 14 19 23 27 31 36 41 48 55 62 75 83 79 73 62 67 76 82 91 92 94 96 95 95 95 87 81 75 68 59 51 44 35 25 17 13 11 8 7 6
8 8 9 10 11 12 14 18 20 19 14 15 16 15 20 26 30 36 43 48 60 72 81 85 78 68 66 76 81 87 95 96 100 100 100 100 95 94 92 92 88 79 63 52 44 33 23 18 14 10 8 7 6 5
9 10 11 12 14 18 18 17 14 14 17 17 17 20 27 34 42 50 66 76 85 86 80 66 68 79 85 93 98 97 96 98 99 97 95 95 99 94 86 79 71 63 51 40 28 19 15 12 9 7 6 5 4 4
10 11 13 15 14 15 13 13 14 15 18 18 21 29 37 42 56 77 83 82 76 68 66 81 89 96 99 98 97 98 99 95 92 90 87 86 83 79 75 68 62 54 42 28 18 14 11 8 6 5 5 4 4 3
12 13 12 14 14 13 14 15 16 19 22 28 31 37 46 60 79 80 72 66 63 83 90 95 98 100 100 100 98 95 95 95 90 89 88 86 79 74 69 68 55 47 34 21 16 12 8 6 5 5 4 4 4 3
16 15 14 13 13 16 20 22 25 24 25 30 42 55 64 75 66 67 64 79 89 94 96 99 100 97 99 96 96 95 95 97 95 87 82 80 78 71 72 68 53 44 28 19 14 9 6 5 5 4 4 3 3 3
15 16 17 20 23 23 26 30 32 34 40 52 60 59 60 60 62 75 82 89 94 98 100 100 100 100 100 98 96 94 95 94 88 78 78 80 82 80 79 66 51 36 23 16 11 7 5 4 4 4 4 3 3 2
19 22 24 23 23 25 32 39 44 48 57 58 52 52 57 71 82 82 88 94 100 100 100 100 100 100 99 96 96 96 94 88 82 82 84 88 86 78 71 60 41 29 19 12 8 6 5 4 4 4 3 3 2 2
19 20 21 24 26 31 36 43 45 47 51 53 60 68 76 78 83 88 97 99 98 97 97 96 98 100 100 99 97 92 88 84 87 91 93 92 86 78 63 46 33 21 13 9 6 5 4 4 4 3 2 2 2 2
18 20 22 23 24 28 31 34 47 58 63 65 66 74 80 87 91 97 96 94 95 98 98 98 100 100 100 96 90 87 88 93 96 100 100 100 92 69 51 36 24 14 9 7 5 5 4 4 3 2 2 2 2 2
15 15 16 19 27 34 47 58 67 70 68 76 83 85 90 94 97 96 93 92 93 96 96 98 95 92 90 88 90 91 92 93 96 96 96 86 75 53 38 26 16 10 7 5 5 4 4 3 2 2 2 2 2 2
18 21 27 32 40 54 65 66 64 66 73 80 86 90 92 96 94 89 89 93 96 95 93 94 93 88 87 89 91 92 94 90 86 82 76 66 57 39 28 17 11 8 6 5 4 4 3 3 2 2 3 2 2 2
29 31 36 44 51 58 58 58 60 67 76 82 85 88 90 90 88 87 94 98 100 99 94 92 94 92 89 88 90 86 82 81 76 72 63 54 40 29 19 12 8 6 5 4 4 4 3 2 2 3 2 2 2 2
38 42 45 49 53 56 59 62 68 76 82 86 87 89 91 90 91 99 100 100 100 96 93 92 89 86 83 82 82 78 77 73 66 62 52 40 29 20 13 9 6 5 5 4 4 3 2 2 3 2 2 2 2 2